Regional Weather Roundup
Issued by NWS

Home | Current Version | Previous Version | Text Only | Print | Product List | Glossary On
Versions: 1 2 3 4 5 6 7 8 9 10 11 12 13 14 15 16 17 18 19 20 21 22 23 24 25 26 27 28 29 30 31 32 33 34 35 36 37 38 39 40 41 42 43 44 45 46 47 48 49 50
000
ASUS43 KOAX 290510
RWRNE

WEATHER ROUNDUP FOR NEBRASKA
NATIONAL WEATHER SERVICE OMAHA NE
1200 AM CDT SAT AUG 29 2015

NOTES: SATELLITE DATA IS BEING USED TO AUGMENT CLOUD COVER ABOVE
       12000 FEET.
       "FAIR" INDICATES FEW OR NO CLOUDS BELOW 12,000 FEET WITH NO
       SIGNIFICANT WEATHER AND/OR OBSTRUCTIONS TO VISIBILITY.

  * THESE STATIONS DO NOT REPORT WEATHER SUCH AS RAIN...SNOW OR FOG.

NEZ001>004-019>022-054>056-290600-
NEBRASKA PANHANDLE

CITY           SKY/WX    TMP DP  RH WIND       PRES   REMARKS
SCOTTSBLUFF    CLEAR     64  51  62 CALM      30.16S
ALLIANCE       CLEAR     59  49  69 CALM      30.15S
CHADRON        CLEAR     61  51  70 CALM      30.10R
KIMBALL        CLEAR     60  44  55 S3        30.22S
SIDNEY         CLEAR     56  41  57 CALM      30.20S
$$

NEZ057>060-069>072-079>082-290600-
SOUTHWEST NEBRASKA

CITY           SKY/WX    TMP DP  RH WIND       PRES   REMARKS
NORTH PLATTE   CLEAR     59  56  89 CALM      30.10R
IMPERIAL       CLEAR     65  59  81 CALM      30.13R
LEXINGTON      CLEAR     61  59  93 W5        30.09R
MCCOOK         CLEAR     65  61  87 CALM      30.11R
OGALLALA       CLEAR     60  55  85 W5        30.13R
$$

NEZ005>010-023>029-035>040-094-290600-
NORTH CENTRAL NEBRASKA

CITY           SKY/WX    TMP DP  RH WIND       PRES   REMARKS
VALENTINE      CLEAR     60  59  96 SW6       30.08R
AINSWORTH      CLEAR     61  60  97 S6        30.08S
BROKEN BOW     CLEAR     61  58  90 N3        30.08R
O`NEILL        CLEAR     62  62  99 CALM      30.07S FOG
ORD            CLEAR     58  57  97 CALM      30.05R
THEDFORD       PTCLDY    59  58  96 CALM      30.11S
$$

NEZ041-046>049-061>064-073>077-083>087-290600-
SOUTH CENTRAL NEBRASKA

CITY           SKY/WX    TMP DP  RH WIND       PRES   REMARKS
GRAND ISLAND   CLEAR     63  60  90 N6        30.05R
AURORA         PTCLDY    63  63 100 N6        30.03S
HASTINGS       CLEAR     61  59  93 NW7       30.04S
HEBRON         CLEAR     65  61  88 N6        30.00S
HOLDREGE       CLEAR     60  58  93 W3        30.07S
KEARNEY *      CLEAR     63  55  77 NW5       30.06S
YORK           PTCLDY    63  61  94 CALM      30.02S
$$

NEZ011>018-030>034-042>045-290600-
NORTHEAST NEBRASKA

CITY           SKY/WX    TMP DP  RH WIND       PRES   REMARKS
NORFOLK        CLEAR     59  57  93 N6        30.03S
ALBION         CLEAR     61  59  91 N3        30.05S
BLAIR          CLOUDY    62  60  94 N14G20    29.96F
COLUMBUS *     CLEAR    N/A N/A N/A N5        30.01F
FREMONT        CLOUDY    64  60  88 N9        29.99S
TEKAMAH        CLOUDY    63  61  93 N9        29.98S
WAYNE          CLOUDY    61  59  92 NE12      30.02S
$$

NEZ050>053-065>068-078-088>093-290600-
SOUTHEAST NEBRASKA

CITY           SKY/WX    TMP DP  RH WIND       PRES   REMARKS
LINCOLN        CLOUDY    65  60  84 N13       29.98F
OMAHA EPPLEY   CLOUDY    64  63  96 N10       29.96R FOG
BEATRICE       PTCLDY    64  60  87 N8        29.98S
FALLS CITY     CLOUDY    68  66  93 NW7       29.94R
NEBRASKA CITY  CLOUDY    65  64  96 N8        29.96S
PLATTSMOUTH    CLOUDY    63  61  94 N8        29.97R FOG
$$

NEZ044-045-051>053-067-290600-
OMAHA AREA

CITY           SKY/WX    TMP DP  RH WIND       PRES   REMARKS
OMAHA EPPLEY   CLOUDY    64  63  96 N10       29.96R FOG
BLAIR          CLOUDY    62  60  94 N14G20    29.96F
FREMONT        CLOUDY    64  60  88 N9        29.99S
MILLARD        CLOUDY    64  62  91 N6        29.96S
OFFUTT AFB     CLOUDY    64  62  94 VRB6      29.95S FOG
PLATTSMOUTH    CLOUDY    63  61  94 N8        29.97R FOG
WAHOO          CLOUDY    64  61  91 N7        29.98S
$$



USA.gov is the U.S. government's official web portal to all federal, state and local government web resources and services.